Location: Longostagno
(46.5500°N, 11.4833°E)
Time: 03:28:43
(UTC+00:00)

Daily predictions for brighter satellites

Satellite Brightness Start Highest point End
(mag) Time Altitude Azimuth Time Altitude Azimuth Time Altitude Azimuth
SJ 16-02 3.4 00:10:38 22° ENE 00:10:38 22° ENE 00:12:55 10° NE
COSMOS 2406 3.9 00:13:26 10° NNW 00:18:57 49° ENE 00:20:04 43° E
Meteor 1-27 Rocket 3.8 00:20:05 71° N 00:20:05 71° N 00:25:13 10° N
ADEOS II 4.0 00:16:31 10° NE 00:20:08 18° E 00:20:56 18° ESE
Cosmos 962 Rocket 4.4 00:16:05 10° N 00:22:04 82° NW 00:22:04 82° NW
Cosmos 1777 Rocket 4.5 00:23:19 57° NE 00:23:19 57° NE 00:27:35 10° NNE
Meteor 1-11 Rocket 4.2 00:16:52 10° NNW 00:21:46 54° WNW 00:21:46 54° WNW
Cosmos 1844 4.1 00:23:31 56° NW 00:23:31 56° NW 00:28:56 10° NNE
ATLAS 5 CENTAUR R/B 3.0 00:18:04 10° NNW 00:23:24 51° NE 00:28:34 15° ESE
USA 281 3.9 00:29:01 40° W 00:29:01 40° W 00:34:05 10° NW
NPP 4.4 00:29:52 10° NNE 00:34:58 42° E 00:35:06 42° ESE
CZ-4C R/B 3.7 00:31:34 10° NNW 00:38:21 50° NE 00:46:16 10° ESE
Cosmos 2218 Rocket 3.9 00:33:25 10° N 00:39:37 77° E 00:40:14 70° SE
Cosmos 864 Rocket 4.5 00:34:51 10° N 00:41:08 74° E 00:41:55 66° SE
Gblst 52 Del rocket 4.3 00:41:47 77° ESE 00:41:47 77° ESE 00:47:17 10° ENE
Cosmos 1959 Rocket 4.4 00:38:17 10° N 00:44:40 81° E 00:45:27 69° SSE
SL-16 R/B 2.5 00:48:09 64° SSE 00:49:13 83° ENE 00:55:31 10° NNW
Cosmos 2366 rocket 3.8 00:43:07 10° N 00:49:18 87° E 00:49:52 75° SSE
Cosmos 1340 Rocket 4.5 00:47:51 10° NNW 00:49:55 29° NNW 00:49:55 29° NNW
Meteor 1-19 Rocket 4.3 00:53:18 63° ESE 00:53:42 65° E 00:59:10 10° NNE
Cosmos 1538 Rocket 4.2 00:48:43 10° NNW 00:53:19 63° NW 00:53:19 63° NW
NOSS 3-3 (A) 3.9 00:58:28 63° SE 00:58:52 65° ESE 01:05:20 10° NE
NOSS 3-3 (C) 3.9 00:58:34 62° SE 00:58:59 64° ESE 01:05:26 10° NE
USA 305 4.3 00:59:37 32° NNW 01:00:08 33° N 01:04:03 10° NE
ATLAS 2AS CENTAUR R/B 4.4 00:56:56 10° NNW 01:03:43 34° NNE 01:10:03 10° E
Cosmos 1844 Rocket 4.1 01:04:03 24° WNW 01:05:06 25° NW 01:09:43 10° N
Cosmos 1238 Rocket 4.0 01:00:24 10° NNW 01:06:41 65° W 01:07:15 62° WSW
Cosmos 1908 Rocket 4.1 01:03:37 10° N 01:07:59 54° ENE 01:08:07 53° E
Meteor 2-4 Rocket 4.3 01:07:13 42° SE 01:08:47 53° E 01:14:30 10° NNE
Helios 1B rocket 3.1 01:07:07 10° N 01:10:19 51° N 01:10:19 51° N
SL-4 R/B 2.7 01:11:02 41° NW 01:12:34 64° NNE 01:17:21 10° ESE
Cosmos 1733 Rocket 4.2 01:11:16 10° NNW 01:13:59 33° NW 01:13:59 33° NW
Meteor 1-18 Rocket 4.2 01:15:13 67° S 01:16:04 90° ESE 01:21:52 10° N
Nadezhda 3 Rocket 4.4 01:15:49 36° SSE 01:18:15 58° E 01:24:27 10° NNE
Cosmos 2082 Rocket 2.3 01:14:55 10° NNW 01:20:33 73° ENE 01:23:49 26° SE
Cosmos 1680 Rocket 3.8 01:15:37 10° NNW 01:20:54 66° ENE 01:23:26 31° SE
UNK 4.3 01:24:38 45° WNW 01:24:38 45° WNW 01:28:14 10° NNW
Resurs 1-4 Rocket 2.1 01:20:20 10° N 01:25:32 61° WNW 01:25:56 59° W
Cosmos 1833 Rocket 2.8 01:23:14 10° NW 01:28:24 54° W 01:28:24 54° W
ADEOS Rocket 3.7 01:24:28 12° SSE 01:30:17 62° ENE 01:37:19 10° N
Cosmos 1703 Rocket 3.6 01:34:02 68° SE 01:34:19 70° E 01:38:39 10° NNE
BREEZE-M R/B 3.8 01:33:22 43° WNW 01:34:46 66° N 01:42:55 10° ENE
Cosmos 1782 Rocket 4.0 01:32:12 10° N 01:36:39 59° ENE 01:38:06 39° SE
CZ-2D R/B 2.4 01:31:33 10° N 01:36:53 52° WNW 01:37:41 48° W
Cosmos 1862 Rocket 4.4 01:38:24 37° WNW 01:38:24 37° WNW 01:42:01 10° N
ERBS 4.2 01:38:39 24° NNW 01:38:39 24° NNW 01:41:21 10° NNE
Meteor 1-28 Rocket 3.3 01:39:56 67° E 01:39:58 67° ENE 01:43:40 10° N
USA 234 3.2 01:37:23 10° NE 01:43:57 73° SE 01:46:23 41° SSW
Milstar 3 4.4 01:44:53 20° S 01:45:22 20° SSE 01:51:30 10° ESE
Cosmos 2278 Rocket 2.4 01:44:17 46° WSW 01:45:34 56° WNW 01:51:10 10° NNE
SJ 16-02 2.3 01:47:37 34° WNW 01:47:40 34° WNW 01:51:44 10° N
Cosmos 923 Rocket 4.0 01:43:35 10° NNW 01:48:42 57° WSW 01:49:14 54° SW
Cosmos 1943 Rocket 3.5 01:47:44 19° SSE 01:50:58 34° ESE 01:56:01 10° NE
Okean 3 4.0 01:51:42 37° SSE 01:53:05 55° E 01:57:19 10° NNE
Cosmos 990 Rocket 3.9 01:51:51 52° SSW 01:53:07 81° WNW 01:58:23 10° NNE
Gbstr 26 Del rocket 3.9 01:51:53 32° W 01:54:37 63° NNW 01:59:38 10° ENE
Okean 1-7 2.9 01:57:13 63° WSW 01:57:38 69° W 02:01:53 10° N
FALCON 9 DEB 4.2 01:59:53 34° ESE 01:59:53 34° ESE 02:01:47 10° ESE
ADEOS II 2.1 01:55:04 10° N 02:00:17 66° WNW 02:01:52 44° SW
COSMOS 2406 4.2 01:58:12 10° NW 02:02:05 27° W 02:02:05 27° W
Cosmos 489 Rocket 4.5 01:58:30 10° NNW 02:04:45 82° ENE 02:10:58 10° SSE
Cosmos 1937 Rocket 3.5 02:03:07 38° S 02:05:06 78° ESE 02:10:16 10° NNE
Cosmos 1975 4.4 02:01:57 10° NNW 02:04:07 22° WNW 02:04:07 22° WNW
ARIANE 5 R/B 3.3 02:02:16 10° NNE 02:07:23 50° E 02:11:10 17° S
Cosmos 858 Rocket 4.5 02:05:39 36° S 02:07:48 79° ESE 02:13:01 10° NNE
ATLAS 5 CENTAUR R/B 2.8 02:02:45 10° NW 02:08:04 38° WSW 02:09:45 33° SSW
Cosmos 1898 Rocket 3.5 02:08:04 41° SW 02:09:53 72° WNW 02:15:12 10° NNE
Cosmos 2369 Rocket 3.9 02:07:31 10° SSE 02:12:08 27° ESE 02:16:47 10° NE
Cosmos 2297 3.8 02:15:39 28° SSW 02:18:47 76° ESE 02:24:31 10° NNE
ARGOS Delta rocket 4.0 02:14:36 10° N 02:18:51 47° WNW 02:19:56 38° WSW
Sich 1 Rocket 3.6 02:18:30 10° N 02:23:07 90° NE 02:27:07 14° S
CBERS-1 4.2 02:18:48 10° N 02:23:48 57° WNW 02:26:03 31° SW
Cosmos 2242 Rocket 4.4 02:23:59 31° W 02:24:43 33° WNW 02:28:43 10° N
IDEFIX/ARIANE 42P 2.5 02:20:01 10° NNE 02:25:15 78° WNW 02:28:15 26° SSW
CZ-4C R/B 3.1 02:20:04 10° NW 02:27:13 54° WSW 02:35:20 10° SSE
Cosmos 2112 Rocket 4.4 02:23:23 10° NW 02:28:21 41° WSW 02:30:48 26° SSW
CREW DRAGON DEMO-1 DEB 3.8 02:28:01 30° NW 02:28:33 33° NNW 02:31:05 10° NE
CZ-4C R/B 4.1 02:28:03 35° SW 02:28:54 39° W 02:33:04 10° NNW
Cosmos 1766 4.0 02:26:09 10° N 02:30:04 55° ENE 02:33:59 10° SSE
Cosmos 372 Rocket 4.1 02:26:59 22° S 02:30:20 72° ESE 02:35:26 10° NNE
IRS-1D 4.1 02:27:04 10° N 02:31:54 42° WNW 02:34:11 27° WSW
SL-16 R/B 3.9 02:33:14 18° W 02:33:33 18° W 02:37:40 10° NW
EP 1 4.3 02:38:05 47° SW 02:38:49 89° WNW 02:41:30 10° NE
NOSS 3-4 (A) 3.8 02:34:00 10° NW 02:40:57 65° WSW 02:48:41 10° SSE
Cosmos 1378 3.7 02:40:01 33° WSW 02:40:58 39° WNW 02:44:29 10° N
NOSS 3-4 (C) 3.8 02:34:06 10° NW 02:41:03 65° WSW 02:48:48 10° SSE
OE (NEXTSAT) 4.5 02:41:14 36° SW 02:42:22 58° SSE 02:45:47 10° E
Meteor 1-13 Rocket 4.5 02:40:01 23° SW 02:43:34 54° WNW 02:49:09 10° N
IRS-1C 4.2 02:38:31 10° N 02:43:49 66° WNW 02:47:38 19° SSW
USA 81 4.1 02:38:48 10° NNW 02:43:58 57° W 02:48:34 13° SSW
Cosmos 1674 Rocket 4.3 02:40:48 10° S 02:45:00 51° E 02:49:17 10° NNE
Cosmos 1733 3.0 02:42:25 10° N 02:46:12 82° W 02:49:58 10° S
SL-4 R/B 2.7 02:47:38 10° WNW 02:52:13 43° SW 02:56:42 10° SSE
Cosmos 1805 3.3 02:48:53 10° NNW 02:52:44 54° W 02:56:18 12° S
Cosmos 1356 Rocket 3.7 02:50:02 10° NNW 02:53:57 44° W 02:57:26 13° SSW
FALCON 9 DEB 3.4 02:54:08 28° WSW 02:55:05 36° SW 02:57:57 10° SSE
ATLAS 2AS CENTAUR R/B 2.7 02:48:03 10° NW 02:55:28 81° SW 03:02:15 10° SSE
DELTA 2 R/B (1) 4.1 02:52:48 20° WSW 02:56:04 40° S 03:01:15 10° ESE
MSX 3.9 02:51:34 10° N 02:57:14 61° WNW 03:02:11 14° SSW
Cosmos 1470 4.3 02:53:49 10° N 02:57:27 38° ENE 03:01:04 10° SE
CZ-4B R/B 3.6 02:53:07 10° N 02:57:45 52° WNW 03:01:17 17° SW
X-37B 0.8 02:56:51 27° WSW 02:58:19 57° S 03:01:28 10° E
USA 306 4.4 02:54:51 10° NW 02:58:51 36° NNE 03:02:52 10° E
FALCON 9 DEB 3.9 03:02:30 24° WSW 03:02:56 25° SW 03:05:33 10° SSE
Cosmos 2084 3.9 03:00:34 20° WSW 03:03:12 47° NW 03:07:21 10° NNE
GP-B 3.9 02:59:20 10° N 03:03:42 53° E 03:08:03 10° SSE
Cosmos 2082 Rocket 3.5 03:00:15 10° WNW 03:03:59 18° W 03:05:33 17° WSW
Resurs 1-4 Rocket 4.3 03:03:18 10° NW 03:04:18 11° NW 03:05:17 10° WNW
Cosmos 1400 Rocket 3.7 03:04:58 10° N 03:09:03 55° ENE 03:13:06 10° SSE
SL-08 R/B 3.8 03:04:30 10° SSW 03:09:06 39° W 03:13:38 10° NNW
Cosmos 2151 Rocket 3.8 03:10:36 10° NNW 03:14:59 50° W 03:19:21 10° SSW
Cosmos 1707 4.3 03:11:26 10° SSE 03:15:00 37° E 03:18:36 10° NNE
PSLV R/B 4.2 03:11:10 10° NNE 03:15:21 54° E 03:19:27 10° S
FALCON 9 DEB 4.3 03:15:20 18° WSW 03:15:56 19° SW 03:18:10 10° S
USA 307 4.3 03:12:02 10° NW 03:16:06 39° NNE 03:20:10 10° E
ADEOS Rocket 4.1 03:11:24 11° SW 03:16:20 27° W 03:22:08 10° NNW
Cosmos 1153 Rocket 4.5 03:10:43 10° NNW 03:16:57 71° W 03:23:14 10° S
Meteor 2-10 4.4 03:11:19 10° N 03:17:04 82° E 03:22:38 10° SSE
IRAS Rocket 4.2 03:13:55 10° S 03:19:23 69° WSW 03:24:56 10° NNW
Okean 2 Rocket 3.7 03:15:32 10° NNW 03:19:33 34° W 03:23:32 10° SSW
SL-27 R/B 3.7 03:19:32 10° N 03:22:44 43° ENE 03:25:53 10° SE
DNEPR-1 R/B 4.3 03:18:05 10° SSW 03:24:24 80° SE 03:29:34 10° NE
Cosmos 1818 4.0 03:19:04 10° NNW 03:24:34 70° NE 03:30:00 10° SE
CZ-2D R/B 4.1 03:21:28 10° N 03:25:18 38° WNW 03:29:11 10° SW
Cosmos 2221 Rocket 4.4 03:22:37 11° SW 03:26:28 33° WNW 03:30:35 10° N
USA 234 3.9 03:20:32 10° NE 03:26:48 50° NNW 03:33:03 10° W
Cosmos 2344 4.5 03:18:24 10° NW 03:27:45 88° SW 03:40:54 10° SE
USA 308 4.1 03:24:44 10° NW 03:28:51 43° NNE 03:32:58 10° E
Cosmos 2278 Rocket 4.3 03:28:14 10° WNW 03:30:59 13° NW 03:33:44 10° N
Cosmos 2263 4.4 03:25:32 10° SSW 03:31:14 81° ESE 03:37:02 10° NNE
Cosmos 1842 3.4 03:29:18 10° SSW 03:33:05 51° WNW 03:36:53 10° N
Cosmos 1726 2.2 03:30:08 10° N 03:33:54 85° E 03:37:37 10° S
SL-24 R/B - RUBIN 2 3.9 03:28:28 10° NW 03:34:03 75° SW 03:38:55 10° SSE
Cosmos 1802 Rocket 4.3 03:27:54 10° N 03:34:12 77° E 03:40:22 10° SSE
Cosmos 1048 Rocket 4.1 03:29:03 10° NNW 03:34:20 57° WSW 03:39:32 10° S
Cosmos 1975 Rocket 4.4 03:30:22 10° SSE 03:34:36 44° E 03:38:49 10° NNE
Cosmos 1943 Rocket 2.8 03:29:16 10° SW 03:34:36 42° NW 03:39:59 10° NNE
Okean 2 3.4 03:32:25 10° SSW 03:36:32 69° W 03:40:42 10° N
ADEOS II 4.1 03:37:24 10° NW 03:38:59 11° NW 03:40:34 10° WNW
Cosmos 1953 4.2 03:38:18 10° N 03:42:00 36° ENE 03:45:40 10° SE
Gbstr 26 Del rocket 4.2 03:36:53 10° WNW 03:42:13 46° N 03:46:33 10° ENE
CZ-2C R/B 2.6 03:37:49 10° N 03:42:28 54° WNW 03:47:14 10° SSW
H-2A R/B 3.3 03:38:41 10° SE 03:42:44 46° ENE 03:46:53 10° N
Okean 1 Rocket 3.3 03:41:45 10° NNW 03:46:05 49° W 03:50:22 10° SSW
ARIANE 5 R/B 3.8 03:41:56 10° N 03:46:11 26° WNW 03:50:24 10° WSW
Cosmos 1833 4.2 03:42:28 10° NNW 03:48:13 81° WSW 03:53:57 10° SSE
